This is the latest recevied weather packets stored in our database for station/object KQ4WWD. If no packets are shown the sender has not sent any weather packets the latest 10 day(s).
| Time | Temp. | Humidity | Pressure | Rain* | Wind** | Luminosity | Snow |
|---|---|---|---|---|---|---|---|
| 1777754281 | 21.11° C | 96% | 1009.4 hPa | 0 mm | - | 193 W/m² | - |
| 1777753979 | 20.56° C | 97% | 1009.3 hPa | 0 mm | - | 142 W/m² | - |
| 1777753678 | 20.56° C | 96% | 1009.2 hPa | 0 mm | - | 114 W/m² | - |
| 1777753376 | 20.56° C | 96% | 1009.1 hPa | 0 mm | - | 128 W/m² | - |
| 1777753074 | 20.56° C | 96% | 1009 hPa | 0 mm | - | 156 W/m² | - |
| 1777752769 | 20.56° C | 96% | 1009.1 hPa | 0 mm | - | 164 W/m² | - |
| 1777752466 | 20° C | 96% | 1009.3 hPa | 1.78 mm | - | 96 W/m² | - |
| 1777752162 | 20° C | 96% | 1009.8 hPa | 1.78 mm | - | 59 W/m² | - |
| 1777751861 | 20° C | 96% | 1009.7 hPa | 1.27 mm | - | 34 W/m² | - |
| 1777751557 | 20° C | 96% | 1009.8 hPa | 4.32 mm | - | 33 W/m² | - |
| 1777751253 | 20° C | 96% | 1010.5 hPa | 4.83 mm | - | 38 W/m² | - |
| 1777750951 | 20° C | 96% | 1010.4 hPa | 4.83 mm | - | 41 W/m² | - |
| 1777750646 | 20° C | 96% | 1011 hPa | 4.83 mm | - | 38 W/m² | - |
| 1777750344 | 20° C | 95% | 1010.4 hPa | 4.83 mm | - | 38 W/m² | - |
| 1777750043 | 20° C | 95% | 1010.2 hPa | 4.83 mm | - | 34 W/m² | - |
| 1777749741 | 20° C | 95% | 1010.5 hPa | 4.83 mm | - | 31 W/m² | - |
| 1777749438 | 20° C | 96% | 1010.6 hPa | 6.1 mm | - | 35 W/m² | - |
| 1777749136 | 20° C | 96% | 1010.8 hPa | 6.1 mm | - | 34 W/m² | - |
| 1777748833 | 20° C | 95% | 1011.1 hPa | 4.32 mm | - | 35 W/m² | - |
| 1777748531 | 20° C | 95% | 1011 hPa | 3.05 mm | - | 36 W/m² | - |
| 1777748230 | 20° C | 95% | 1011.3 hPa | 3.05 mm | - | 32 W/m² | - |
| 1777747927 | 20° C | 95% | 1011.2 hPa | 3.05 mm | - | 26 W/m² | - |
| 1777747623 | 20.56° C | 95% | 1011.3 hPa | 1.78 mm | - | 24 W/m² | - |
| 1777747324 | 20° C | 94% | 1011.3 hPa | 1.78 mm | - | 18 W/m² | - |
| 1777747021 | 20° C | 94% | 1011.6 hPa | 3.56 mm | - | 14 W/m² | - |
* Rain latest hour (hover to see other rain measurements)
** Current wind speed in m/s (hover to see current wind gust speed)